This is the latest recevied weather packets stored in our database for station/object KC5TIL. If no packets are shown the sender has not sent any weather packets the latest 1 day(s).
| Time | Temp. | Humidity | Pressure | Rain* | Wind** | Luminosity | Snow |
|---|---|---|---|---|---|---|---|
| 1778033404 | 22.78° C | 68% | 1008.1 hPa | 0 mm | - | 0 W/m² | - |
| 1778033101 | 22.78° C | 68% | 1007.9 hPa | 0 mm | - | 0 W/m² | - |
| 1778032495 | 23.33° C | 67% | 1007.4 hPa | 0 mm | - | 0 W/m² | - |
| 1778031889 | 23.89° C | 67% | 1007.4 hPa | 0 mm | - | 0 W/m² | - |
| 1778031585 | 23.89° C | 67% | 1007 hPa | 0 mm | - | 0 W/m² | - |
| 1778031284 | 23.89° C | 67% | 1007 hPa | 0 mm | - | 0 W/m² | - |
| 1778030676 | 24.44° C | 66% | 1006.8 hPa | 0 mm | - | 0 W/m² | - |
| 1778030373 | 25° C | 66% | 1006.6 hPa | 0 mm | - | 0 W/m² | - |
| 1778030071 | 25° C | 65% | 1006.6 hPa | 0 mm | - | 0 W/m² | - |
| 1778029767 | 25.56° C | 64% | 1006.7 hPa | 0 mm | - | 0 W/m² | - |
| 1778029162 | 25.56° C | 62% | 1006.5 hPa | 0 mm | - | 4 W/m² | - |
| 1778028860 | 26.11° C | 62% | 1006.3 hPa | 0 mm | - | 7 W/m² | - |
| 1778028555 | 26.11° C | 62% | 1006.3 hPa | 0 mm | - | 13 W/m² | - |
| 1778027949 | 26.11° C | 62% | 1006.1 hPa | 0 mm | - | 14 W/m² | - |
| 1778027038 | 26.67° C | 61% | 1006.1 hPa | 0 mm | - | 30 W/m² | - |
| 1778026734 | 26.67° C | 60% | 1006 hPa | 0 mm | - | 39 W/m² | - |
| 1778026431 | 27.22° C | 59% | 1005.9 hPa | 0 mm | - | 54 W/m² | - |
| 1778026128 | 27.22° C | 59% | 1006 hPa | 0 mm | - | 51 W/m² | - |
| 1778025220 | 27.78° C | 57% | 1005.9 hPa | 0 mm | - | 81 W/m² | - |
| 1778024917 | 27.78° C | 57% | 1005.6 hPa | 0 mm | - | 76 W/m² | - |
| 1778024615 | 28.33° C | 57% | 1005.6 hPa | 0 mm | - | 65 W/m² | - |
* Rain latest hour (hover to see other rain measurements)
** Current wind speed in m/s (hover to see current wind gust speed)